Location: Plainartige
(45.6866°N, 1.7993°E)
Time: 17:16:00
(UTC+00:00)

BREEZE-M DEB (TANK) - Pass Details

Date: 03 March 2021
Orbit: 334 x 11905 km, 49.7° (Epoch: 12 April)

Event Time Altitude Azimuth Distance (km) Brightness Sun altitude
Rises 18:59:23 0° 211° (SSW) 2,267 6.9 -14.2°
Reaches altitude 10° 19:01:37 10° 191° (S) 1,267 5.3 -14.6°
Enters shadow 19:02:54 18° 159° (SSE) 908 4.3 -14.8°
